Year,Month,Day,Hour,Minute,Value (Times are PST for temperature in C)
2014,08,03,00,00,17.20
2014,08,03,00,01,17.20
2014,08,03,00,02,17.20
2014,08,03,00,03,17.30
2014,08,03,00,04,17.30
2014,08,03,00,05,17.30
2014,08,03,00,06,17.40
2014,08,03,00,07,17.40
2014,08,03,00,08,17.40
2014,08,03,00,09,17.40
2014,08,03,00,10,17.40
2014,08,03,00,11,17.40
2014,08,03,00,12,17.40
2014,08,03,00,13,17.40
2014,08,03,00,14,17.40
2014,08,03,00,15,17.40
2014,08,03,00,16,17.40
2014,08,03,00,17,17.40
2014,08,03,00,18,17.40
2014,08,03,00,19,17.40
2014,08,03,00,20,17.30
2014,08,03,00,21,17.30
2014,08,03,00,22,17.30
2014,08,03,00,23,17.30
2014,08,03,00,24,17.20
2014,08,03,00,25,17.20
2014,08,03,00,26,17.20
2014,08,03,00,27,17.10
2014,08,03,00,28,17.10
2014,08,03,00,29,17.10
2014,08,03,00,30,17.10
2014,08,03,00,31,17.10
2014,08,03,00,32,17.00
2014,08,03,00,33,17.00
2014,08,03,00,34,16.90
2014,08,03,00,35,16.90
2014,08,03,00,36,16.90
2014,08,03,00,37,16.90
2014,08,03,00,38,16.80
2014,08,03,00,39,16.80
2014,08,03,00,40,16.80
2014,08,03,00,41,16.80
2014,08,03,00,42,16.80
2014,08,03,00,43,16.80
2014,08,03,00,44,16.80
2014,08,03,00,45,16.70
2014,08,03,00,46,16.70
2014,08,03,00,47,16.70
2014,08,03,00,48,16.70
2014,08,03,00,49,16.60
2014,08,03,00,50,16.60
2014,08,03,00,51,16.60
2014,08,03,00,52,16.60
2014,08,03,00,53,16.60
2014,08,03,00,54,16.50
2014,08,03,00,55,16.50
2014,08,03,00,56,16.50
2014,08,03,00,57,16.40
2014,08,03,00,58,16.40
2014,08,03,00,59,16.40
2014,08,03,01,00,16.40
2014,08,03,01,01,16.40
2014,08,03,01,02,16.40
2014,08,03,01,03,16.40
2014,08,03,01,04,16.40
2014,08,03,01,05,16.40
2014,08,03,01,06,16.30
2014,08,03,01,07,16.30
2014,08,03,01,08,16.30
2014,08,03,01,09,16.30
2014,08,03,01,10,16.30
2014,08,03,01,11,16.40
2014,08,03,01,12,16.40
2014,08,03,01,13,16.40
2014,08,03,01,14,16.40
2014,08,03,01,15,16.40
2014,08,03,01,16,16.40
2014,08,03,01,17,16.40
2014,08,03,01,18,16.40
2014,08,03,01,19,16.40
2014,08,03,01,20,16.40
2014,08,03,01,21,16.40
2014,08,03,01,22,16.40
2014,08,03,01,23,16.40
2014,08,03,01,24,16.40
2014,08,03,01,25,16.40
2014,08,03,01,26,16.50
2014,08,03,01,27,16.50
2014,08,03,01,28,16.50
2014,08,03,01,29,16.50
2014,08,03,01,30,16.50
2014,08,03,01,31,16.50
2014,08,03,01,32,16.50
2014,08,03,01,33,16.50
2014,08,03,01,34,16.50
2014,08,03,01,35,16.40
2014,08,03,01,36,16.50
2014,08,03,01,37,16.40
2014,08,03,01,38,16.40
2014,08,03,01,39,16.40
2014,08,03,01,40,16.40
2014,08,03,01,41,16.40
2014,08,03,01,42,16.40
2014,08,03,01,43,16.40
2014,08,03,01,44,16.40
2014,08,03,01,45,16.40
2014,08,03,01,46,16.40
2014,08,03,01,47,16.40
2014,08,03,01,48,16.40
2014,08,03,01,49,16.40
2014,08,03,01,50,16.40
2014,08,03,01,51,16.40
2014,08,03,01,52,16.40
2014,08,03,01,53,16.40
2014,08,03,01,54,16.40
2014,08,03,01,55,16.40
2014,08,03,01,56,16.40
2014,08,03,01,57,16.40
2014,08,03,01,58,16.50
2014,08,03,01,59,16.50
2014,08,03,02,00,16.50
2014,08,03,02,01,16.50
2014,08,03,02,02,16.50
2014,08,03,02,03,16.50
2014,08,03,02,04,16.60
2014,08,03,02,05,16.60
2014,08,03,02,06,16.60
2014,08,03,02,07,16.70
2014,08,03,02,08,16.70
2014,08,03,02,09,16.70
2014,08,03,02,10,16.70
2014,08,03,02,11,16.80
2014,08,03,02,12,16.80
2014,08,03,02,13,16.80
2014,08,03,02,14,16.80
2014,08,03,02,15,16.80
2014,08,03,02,16,16.80
2014,08,03,02,17,16.80
2014,08,03,02,18,16.80
2014,08,03,02,19,16.80
2014,08,03,02,20,16.70
2014,08,03,02,21,16.70
2014,08,03,02,22,16.70
2014,08,03,02,23,16.70
2014,08,03,02,24,16.70
2014,08,03,02,25,16.70
2014,08,03,02,26,16.70
2014,08,03,02,27,16.70
2014,08,03,02,28,16.60
2014,08,03,02,29,16.60
2014,08,03,02,30,16.60
2014,08,03,02,31,16.60
2014,08,03,02,32,16.50
2014,08,03,02,33,16.50
2014,08,03,02,34,16.40
2014,08,03,02,35,16.40
2014,08,03,02,36,16.40
2014,08,03,02,37,16.40
2014,08,03,02,38,16.40
2014,08,03,02,39,16.40
2014,08,03,02,40,16.40
2014,08,03,02,41,16.30
2014,08,03,02,42,16.30
2014,08,03,02,43,16.30
2014,08,03,02,44,16.30
2014,08,03,02,45,16.30
2014,08,03,02,46,16.30
2014,08,03,02,47,16.20
2014,08,03,02,48,16.20
2014,08,03,02,49,16.20
2014,08,03,02,50,16.20
2014,08,03,02,51,16.10
2014,08,03,02,52,16.10
2014,08,03,02,53,16.10
2014,08,03,02,54,16.00
2014,08,03,02,55,16.00
2014,08,03,02,56,16.00
2014,08,03,02,57,15.90
2014,08,03,02,58,15.90
2014,08,03,02,59,15.90
2014,08,03,03,00,15.80
2014,08,03,03,01,15.80
2014,08,03,03,02,15.80
2014,08,03,03,06,15.70
2014,08,03,03,07,15.70
2014,08,03,03,08,15.60
2014,08,03,03,09,15.60
2014,08,03,03,10,15.60
2014,08,03,03,11,15.60
2014,08,03,03,12,15.60
2014,08,03,03,13,15.50
2014,08,03,03,14,15.50
2014,08,03,03,15,15.50
2014,08,03,03,16,15.40
2014,08,03,03,17,15.40
2014,08,03,03,18,15.40
2014,08,03,03,19,15.40
2014,08,03,03,20,15.30
2014,08,03,03,21,15.30
2014,08,03,03,22,15.30
2014,08,03,03,23,15.30
2014,08,03,03,24,15.30
2014,08,03,03,25,15.30
2014,08,03,03,26,15.20
2014,08,03,03,27,15.20
2014,08,03,03,28,15.20
2014,08,03,03,29,15.20
2014,08,03,03,30,15.20
2014,08,03,03,31,15.20
2014,08,03,03,32,15.20
2014,08,03,03,33,15.20
2014,08,03,03,34,15.20
2014,08,03,03,35,15.10
2014,08,03,03,36,15.10
2014,08,03,03,37,15.10
2014,08,03,03,38,15.10
2014,08,03,03,39,15.10
2014,08,03,03,40,15.00
2014,08,03,03,41,15.00
2014,08,03,03,42,15.00
2014,08,03,03,43,15.00
2014,08,03,03,44,15.00
2014,08,03,03,45,15.00
2014,08,03,03,46,15.00
2014,08,03,03,47,15.00
2014,08,03,03,48,15.00
2014,08,03,03,49,15.00
2014,08,03,03,50,15.00
2014,08,03,03,51,15.00
2014,08,03,03,52,15.00
2014,08,03,03,53,15.00
2014,08,03,03,54,15.00
2014,08,03,03,55,15.00
2014,08,03,03,56,15.00
2014,08,03,03,57,15.00
2014,08,03,03,58,15.00
2014,08,03,03,59,15.00
2014,08,03,04,00,15.00
2014,08,03,04,01,15.00
2014,08,03,04,02,15.00
2014,08,03,04,03,15.00
2014,08,03,04,04,15.00
2014,08,03,04,05,15.00
2014,08,03,04,06,15.00
2014,08,03,04,07,14.90
2014,08,03,04,08,14.90
2014,08,03,04,09,14.90
2014,08,03,04,10,14.90
2014,08,03,04,11,14.90
2014,08,03,04,12,14.90
2014,08,03,04,13,14.90
2014,08,03,04,14,14.90
2014,08,03,04,15,14.90
2014,08,03,04,16,14.90
2014,08,03,04,17,14.90
2014,08,03,04,18,14.90
2014,08,03,04,19,14.90
2014,08,03,04,20,14.90
2014,08,03,04,21,14.90
2014,08,03,04,22,15.00
2014,08,03,04,23,15.00
2014,08,03,04,24,15.00
2014,08,03,04,25,15.00
2014,08,03,04,26,15.00
2014,08,03,04,27,15.00
2014,08,03,04,28,15.00
2014,08,03,04,29,15.00
2014,08,03,04,30,15.00
2014,08,03,04,31,15.00
2014,08,03,04,32,15.00
2014,08,03,04,33,15.00
2014,08,03,04,34,15.00
2014,08,03,04,35,15.00
2014,08,03,04,36,15.00
2014,08,03,04,37,15.00
2014,08,03,04,38,15.00
2014,08,03,04,39,15.00
2014,08,03,04,40,15.00
2014,08,03,04,41,15.00
2014,08,03,04,42,15.00
2014,08,03,04,43,15.00
2014,08,03,04,44,15.00
2014,08,03,04,45,15.00
2014,08,03,04,46,15.00
2014,08,03,04,47,15.00
2014,08,03,04,48,15.00
2014,08,03,04,49,15.00
2014,08,03,04,50,15.00
2014,08,03,04,51,15.00
2014,08,03,04,52,15.00
2014,08,03,04,53,15.00
2014,08,03,04,54,15.00
2014,08,03,04,55,15.10
2014,08,03,04,56,15.20
2014,08,03,04,57,15.20
2014,08,03,04,58,15.30
2014,08,03,04,59,15.30
2014,08,03,05,00,15.30
2014,08,03,05,01,15.30
2014,08,03,05,02,15.20
2014,08,03,05,03,15.20
2014,08,03,05,04,15.20
2014,08,03,05,05,15.20
2014,08,03,05,06,15.20
2014,08,03,05,07,15.20
2014,08,03,05,08,15.30
2014,08,03,05,09,15.30
2014,08,03,05,10,15.30
2014,08,03,05,11,15.30
2014,08,03,05,12,15.30
2014,08,03,05,13,15.30
2014,08,03,05,14,15.20
2014,08,03,05,15,15.20
2014,08,03,05,16,15.20
2014,08,03,05,17,15.10
2014,08,03,05,18,15.10
2014,08,03,05,19,15.00
2014,08,03,05,20,15.00
2014,08,03,05,21,15.00
2014,08,03,05,22,15.00
2014,08,03,05,23,15.00
2014,08,03,05,24,15.00
2014,08,03,05,25,15.00
2014,08,03,05,26,15.00
2014,08,03,05,27,15.00
2014,08,03,05,28,15.00
2014,08,03,05,29,15.00
2014,08,03,05,30,15.00
2014,08,03,05,31,15.00
2014,08,03,05,32,15.00
2014,08,03,05,33,15.00
2014,08,03,05,34,15.00
2014,08,03,05,35,14.90
2014,08,03,05,36,14.90
2014,08,03,05,37,14.90
2014,08,03,05,38,14.80
2014,08,03,05,39,14.80
2014,08,03,05,40,14.70
2014,08,03,05,41,14.70
2014,08,03,05,42,14.70
2014,08,03,05,43,14.60
2014,08,03,05,44,14.60
2014,08,03,05,45,14.60
2014,08,03,05,46,14.50
2014,08,03,05,47,14.50
2014,08,03,05,48,14.40
2014,08,03,05,49,14.40
2014,08,03,05,50,14.40
2014,08,03,05,51,14.40
2014,08,03,05,52,14.30
2014,08,03,05,53,14.30
2014,08,03,05,54,14.30
2014,08,03,05,55,14.30
2014,08,03,05,56,14.20
2014,08,03,05,57,14.20
2014,08,03,05,58,14.20
2014,08,03,05,59,14.20
2014,08,03,06,00,14.20
2014,08,03,06,01,14.20
2014,08,03,06,02,14.10
2014,08,03,06,03,14.10
2014,08,03,06,04,14.10
2014,08,03,06,05,14.10
2014,08,03,06,06,14.10
2014,08,03,06,07,14.00
2014,08,03,06,08,14.00
2014,08,03,06,09,14.00
2014,08,03,06,10,14.00
2014,08,03,06,11,14.00
2014,08,03,06,12,14.00
2014,08,03,06,13,14.00
2014,08,03,06,14,14.00
2014,08,03,06,15,13.90
2014,08,03,06,16,13.90
2014,08,03,06,17,13.90
2014,08,03,06,18,13.90
2014,08,03,06,19,14.00
2014,08,03,06,20,14.00
2014,08,03,06,21,14.00
2014,08,03,06,22,14.00
2014,08,03,06,23,14.00
2014,08,03,06,24,14.00
2014,08,03,06,25,14.00
2014,08,03,06,26,14.00
2014,08,03,06,27,14.10
2014,08,03,06,28,14.10
2014,08,03,06,29,14.10
2014,08,03,06,30,14.10
2014,08,03,06,31,14.10
2014,08,03,06,32,14.10
2014,08,03,06,33,14.10
2014,08,03,06,34,14.10
2014,08,03,06,35,14.10
2014,08,03,06,36,14.10
2014,08,03,06,37,14.10
2014,08,03,06,38,14.10
2014,08,03,06,39,14.10
2014,08,03,06,40,14.10
2014,08,03,06,41,14.10
2014,08,03,06,42,14.10
2014,08,03,06,43,14.20
2014,08,03,06,44,14.20
2014,08,03,06,45,14.20
2014,08,03,06,46,14.20
2014,08,03,06,47,14.20
2014,08,03,06,48,14.20
2014,08,03,06,49,14.30
2014,08,03,06,50,14.30
2014,08,03,06,51,14.30
2014,08,03,06,52,14.40
2014,08,03,06,53,14.40
2014,08,03,06,54,14.40
2014,08,03,06,55,14.50
2014,08,03,06,56,14.50
2014,08,03,06,57,14.60
2014,08,03,06,58,14.60
2014,08,03,06,59,14.70
2014,08,03,07,00,14.70
2014,08,03,07,01,14.80
2014,08,03,07,02,14.80
2014,08,03,07,03,14.90
2014,08,03,07,04,15.00
2014,08,03,07,05,15.00
2014,08,03,07,06,15.00
2014,08,03,07,07,15.10
2014,08,03,07,08,15.30
2014,08,03,07,09,15.40
2014,08,03,07,10,15.60
2014,08,03,07,11,15.70
2014,08,03,07,12,15.80
2014,08,03,07,13,15.90
2014,08,03,07,14,15.90
2014,08,03,07,15,16.00
2014,08,03,07,16,16.20
2014,08,03,07,17,16.30
2014,08,03,07,18,16.40
2014,08,03,07,19,16.60
2014,08,03,07,20,16.70
2014,08,03,07,21,16.80
2014,08,03,07,22,16.90
2014,08,03,07,23,17.10
2014,08,03,07,24,17.20
2014,08,03,07,25,17.30
2014,08,03,07,26,17.40
2014,08,03,07,27,17.50
2014,08,03,07,28,17.60
2014,08,03,07,29,17.70
2014,08,03,07,30,17.70
2014,08,03,07,31,17.80
2014,08,03,07,32,17.80
2014,08,03,07,33,17.80
2014,08,03,07,34,17.80
2014,08,03,07,35,17.80
2014,08,03,07,36,17.80
2014,08,03,07,37,17.80
2014,08,03,07,38,17.70
2014,08,03,07,39,17.80
2014,08,03,07,40,17.80
2014,08,03,07,41,17.90
2014,08,03,07,42,18.00
2014,08,03,07,43,18.10
2014,08,03,07,44,18.20
2014,08,03,07,45,18.40
2014,08,03,07,46,18.50
2014,08,03,07,47,18.60
2014,08,03,07,48,18.80
2014,08,03,07,49,18.90
2014,08,03,07,50,19.00
2014,08,03,07,51,19.20
2014,08,03,07,52,19.30
2014,08,03,07,53,19.40
2014,08,03,07,54,19.50
2014,08,03,07,55,19.60
2014,08,03,07,56,19.70
2014,08,03,07,57,19.80
2014,08,03,07,58,19.90
2014,08,03,07,59,20.00
2014,08,03,08,00,20.00
2014,08,03,08,01,20.10
2014,08,03,08,02,20.20
2014,08,03,08,03,20.30
2014,08,03,08,04,20.40
2014,08,03,08,05,20.40
2014,08,03,08,06,20.50
2014,08,03,08,07,20.60
2014,08,03,08,08,20.60
2014,08,03,08,09,20.70
2014,08,03,08,10,20.80
2014,08,03,08,11,20.80
2014,08,03,08,12,20.90
2014,08,03,08,13,20.90
2014,08,03,08,14,21.00
2014,08,03,08,15,21.00
2014,08,03,08,16,21.10
2014,08,03,08,17,21.10
2014,08,03,08,18,21.10
2014,08,03,08,19,21.20
2014,08,03,08,20,21.20
2014,08,03,08,21,21.20
2014,08,03,08,22,21.30
2014,08,03,08,23,21.30
2014,08,03,08,24,21.40
2014,08,03,08,25,21.50
2014,08,03,08,26,21.60
2014,08,03,08,27,21.70
2014,08,03,08,28,21.70
2014,08,03,08,29,21.70
2014,08,03,08,30,21.80
2014,08,03,08,31,21.80
2014,08,03,08,32,21.90
2014,08,03,08,33,22.00
2014,08,03,08,34,22.00
2014,08,03,08,35,22.10
2014,08,03,08,36,22.20
2014,08,03,08,37,22.20
2014,08,03,08,38,22.30
2014,08,03,08,39,22.30
2014,08,03,08,40,22.40
2014,08,03,08,41,22.40
2014,08,03,08,42,22.50
2014,08,03,08,43,22.60
2014,08,03,08,44,22.60
2014,08,03,08,45,22.70
2014,08,03,08,46,22.80
2014,08,03,08,47,22.80
2014,08,03,08,48,22.90
2014,08,03,08,49,23.00
2014,08,03,08,50,23.00
2014,08,03,08,51,23.10
2014,08,03,08,52,23.10
2014,08,03,08,53,23.10
2014,08,03,08,54,23.10
2014,08,03,08,55,23.20
2014,08,03,08,56,23.20
2014,08,03,08,57,23.20
2014,08,03,08,58,23.30
2014,08,03,08,59,23.30
2014,08,03,09,00,23.30
2014,08,03,09,01,23.30
2014,08,03,09,02,23.30
2014,08,03,09,03,23.20
2014,08,03,09,04,23.20
2014,08,03,09,05,23.20
2014,08,03,09,06,23.20
2014,08,03,09,07,23.20
2014,08,03,09,08,23.20
2014,08,03,09,09,23.20
2014,08,03,09,10,23.20
2014,08,03,09,11,23.20
2014,08,03,09,12,23.30
2014,08,03,09,13,23.30
2014,08,03,09,14,23.30
2014,08,03,09,15,23.30
2014,08,03,09,16,23.30
2014,08,03,09,17,23.30
2014,08,03,09,18,23.30
2014,08,03,09,19,23.30
2014,08,03,09,20,23.30
2014,08,03,09,21,23.20
2014,08,03,09,22,23.20
2014,08,03,09,23,23.30
2014,08,03,09,24,23.30
2014,08,03,09,25,23.30
2014,08,03,09,26,23.30
2014,08,03,09,27,23.30
2014,08,03,09,28,23.40
2014,08,03,09,29,23.40
2014,08,03,09,30,23.40
2014,08,03,09,31,23.40
2014,08,03,09,32,23.40
2014,08,03,09,33,23.50
2014,08,03,09,34,23.50
2014,08,03,09,35,23.50
2014,08,03,09,36,23.60
2014,08,03,09,37,23.70
2014,08,03,09,38,23.70
2014,08,03,09,39,23.80
2014,08,03,09,40,23.90
2014,08,03,09,41,24.00
2014,08,03,09,42,24.00
2014,08,03,09,43,24.00
2014,08,03,09,44,24.00
2014,08,03,09,45,24.00
2014,08,03,09,46,24.00
2014,08,03,09,47,24.00
2014,08,03,09,48,24.00
2014,08,03,09,49,24.00
2014,08,03,09,50,23.90
2014,08,03,09,51,23.90
2014,08,03,09,52,24.00
2014,08,03,09,53,24.00
2014,08,03,09,54,24.10
2014,08,03,09,55,24.10
2014,08,03,09,56,24.10
2014,08,03,09,57,24.00
2014,08,03,09,58,24.00
2014,08,03,09,59,24.00
2014,08,03,10,00,24.00
2014,08,03,10,01,24.10
2014,08,03,10,02,24.20
2014,08,03,10,03,24.30
2014,08,03,10,04,24.30
2014,08,03,10,05,24.40
2014,08,03,10,06,24.50
2014,08,03,10,07,24.60
2014,08,03,10,08,24.60
2014,08,03,10,09,24.70
2014,08,03,10,10,24.70
2014,08,03,10,11,24.80
2014,08,03,10,12,24.80
2014,08,03,10,13,25.00
2014,08,03,10,14,25.10
2014,08,03,10,15,25.10
2014,08,03,10,16,25.20
2014,08,03,10,17,25.20
2014,08,03,10,18,25.30
2014,08,03,10,19,25.30
2014,08,03,10,20,25.30
2014,08,03,10,21,25.30
2014,08,03,10,22,25.40
2014,08,03,10,23,25.40
2014,08,03,10,24,25.40
2014,08,03,10,25,25.40
2014,08,03,10,26,25.40
2014,08,03,10,27,25.40
2014,08,03,10,28,25.50
2014,08,03,10,29,25.50
2014,08,03,10,30,25.50
2014,08,03,10,31,25.30
2014,08,03,10,32,25.10
2014,08,03,10,33,24.80
2014,08,03,10,34,24.50
2014,08,03,10,35,24.40
2014,08,03,10,36,24.30
2014,08,03,10,37,24.30
2014,08,03,10,38,24.30
2014,08,03,10,39,24.30
2014,08,03,10,40,24.40
2014,08,03,10,41,24.40
2014,08,03,10,42,24.50
2014,08,03,10,43,24.60
2014,08,03,10,44,24.70
2014,08,03,10,45,24.90
2014,08,03,10,46,25.00
2014,08,03,10,47,25.10
2014,08,03,10,48,25.10
2014,08,03,10,49,25.20
2014,08,03,10,50,25.20
2014,08,03,10,51,25.30
2014,08,03,10,52,25.30
2014,08,03,10,53,25.30
2014,08,03,10,54,25.40
2014,08,03,10,55,25.40
2014,08,03,10,56,25.30
2014,08,03,10,57,25.40
2014,08,03,10,58,25.40
2014,08,03,10,59,25.40
2014,08,03,11,00,25.40
2014,08,03,11,01,25.40
2014,08,03,11,02,25.20
2014,08,03,11,03,25.10
2014,08,03,11,04,25.00
2014,08,03,11,05,24.90
2014,08,03,11,06,24.80
2014,08,03,11,07,24.80
2014,08,03,11,08,24.70
2014,08,03,11,09,24.60
2014,08,03,11,10,24.50
2014,08,03,11,11,24.50
2014,08,03,11,12,24.50
2014,08,03,11,13,24.50
2014,08,03,11,14,24.40
2014,08,03,11,15,24.30
2014,08,03,11,16,24.10
2014,08,03,11,17,24.00
2014,08,03,11,18,23.90
2014,08,03,11,19,23.80
2014,08,03,11,20,23.80
2014,08,03,11,21,23.80
2014,08,03,11,22,23.70
2014,08,03,11,23,23.70
2014,08,03,11,24,23.70
2014,08,03,11,25,23.70
2014,08,03,11,26,23.70
2014,08,03,11,27,23.70
2014,08,03,11,28,23.70
2014,08,03,11,29,23.70
2014,08,03,11,30,23.70
2014,08,03,11,31,23.70
2014,08,03,11,32,23.70
2014,08,03,11,33,23.60
2014,08,03,11,34,23.60
2014,08,03,11,35,23.60
2014,08,03,11,36,23.70
2014,08,03,11,37,23.70
2014,08,03,11,38,23.70
2014,08,03,11,39,23.70
2014,08,03,11,40,23.70
2014,08,03,11,41,23.80
2014,08,03,11,42,24.00
2014,08,03,11,43,24.00
2014,08,03,11,44,24.10
2014,08,03,11,45,24.10
2014,08,03,11,46,24.00
2014,08,03,11,47,23.90
2014,08,03,11,48,23.70
2014,08,03,11,49,23.60
2014,08,03,11,50,23.60
2014,08,03,11,51,23.50
2014,08,03,11,52,23.60
2014,08,03,11,53,23.60
2014,08,03,11,54,23.60
2014,08,03,11,55,23.80
2014,08,03,11,56,23.80
2014,08,03,11,57,23.80
2014,08,03,11,58,23.80
2014,08,03,11,59,23.80
2014,08,03,12,00,23.80
2014,08,03,12,01,24.00
2014,08,03,12,02,24.10
2014,08,03,12,03,24.10
2014,08,03,12,04,24.10
2014,08,03,12,05,24.10
2014,08,03,12,06,24.20
2014,08,03,12,07,24.30
2014,08,03,12,08,24.30
2014,08,03,12,09,24.40
2014,08,03,12,10,24.50
2014,08,03,12,11,24.50
2014,08,03,12,12,24.50
2014,08,03,12,13,24.60
2014,08,03,12,14,24.70
2014,08,03,12,15,24.80
2014,08,03,12,16,24.80
2014,08,03,12,17,24.90
2014,08,03,12,18,25.10
2014,08,03,12,19,25.10
2014,08,03,12,20,25.20
2014,08,03,12,21,25.30
2014,08,03,12,22,25.40
2014,08,03,12,23,25.50
2014,08,03,12,24,25.60
2014,08,03,12,25,25.70
2014,08,03,12,26,25.60
2014,08,03,12,27,25.50
2014,08,03,12,28,25.50
2014,08,03,12,29,25.60
2014,08,03,12,30,25.60
2014,08,03,12,31,25.60
2014,08,03,12,32,25.70
2014,08,03,12,33,25.70
2014,08,03,12,34,25.60
2014,08,03,12,35,25.50
2014,08,03,12,36,25.40
2014,08,03,12,37,25.40
2014,08,03,12,38,25.40
2014,08,03,12,39,25.40
2014,08,03,12,40,25.30
2014,08,03,12,41,25.30
2014,08,03,12,42,25.30
2014,08,03,12,43,25.40
2014,08,03,12,44,25.50
2014,08,03,12,45,25.60
2014,08,03,12,46,25.70
2014,08,03,12,47,25.70
2014,08,03,12,48,25.60
2014,08,03,12,49,25.50
2014,08,03,12,50,25.30
2014,08,03,12,51,25.30
2014,08,03,12,52,25.30
2014,08,03,12,53,25.30
2014,08,03,12,54,25.30
2014,08,03,12,55,25.30
2014,08,03,12,56,25.20
2014,08,03,12,57,25.10
2014,08,03,12,58,25.20
2014,08,03,12,59,25.30
2014,08,03,13,00,25.30
2014,08,03,13,01,25.50
2014,08,03,13,02,25.60
2014,08,03,13,03,25.80
2014,08,03,13,04,26.00
2014,08,03,13,05,26.20
2014,08,03,13,06,26.30
2014,08,03,13,07,26.40
2014,08,03,13,08,26.50
2014,08,03,13,09,26.70
2014,08,03,13,10,26.80
2014,08,03,13,11,26.90
2014,08,03,13,12,26.90
2014,08,03,13,13,26.70
2014,08,03,13,14,26.80
2014,08,03,13,15,26.80
2014,08,03,13,16,26.90
2014,08,03,13,17,27.00
2014,08,03,13,18,27.00
2014,08,03,13,19,27.10
2014,08,03,13,20,27.10
2014,08,03,13,21,27.20
2014,08,03,13,22,27.20
2014,08,03,13,23,27.00
2014,08,03,13,24,26.80
2014,08,03,13,25,26.70
2014,08,03,13,26,26.60
2014,08,03,13,27,26.60
2014,08,03,13,28,26.60
2014,08,03,13,29,26.70
2014,08,03,13,30,26.80
2014,08,03,13,31,26.80
2014,08,03,13,32,26.70
2014,08,03,13,33,26.60
2014,08,03,13,34,26.60
2014,08,03,13,35,26.60
2014,08,03,13,36,26.70
2014,08,03,13,37,26.90
2014,08,03,13,38,27.00
2014,08,03,13,39,27.10
2014,08,03,13,40,27.20
2014,08,03,13,41,27.20
2014,08,03,13,42,27.10
2014,08,03,13,43,27.00
2014,08,03,13,44,26.90
2014,08,03,13,45,26.90
2014,08,03,13,46,26.90
2014,08,03,13,47,26.80
2014,08,03,13,48,26.80
2014,08,03,13,49,26.90
2014,08,03,13,50,27.00
2014,08,03,13,51,27.00
2014,08,03,13,52,27.00
2014,08,03,13,53,27.00
2014,08,03,13,54,27.10
2014,08,03,13,55,27.10
2014,08,03,13,56,27.20
2014,08,03,13,57,27.30
2014,08,03,13,58,27.30
2014,08,03,13,59,27.30
2014,08,03,14,00,27.40
2014,08,03,14,01,27.40
2014,08,03,14,02,27.30
2014,08,03,14,03,27.20
2014,08,03,14,04,27.20
2014,08,03,14,05,27.20
2014,08,03,14,06,27.20
2014,08,03,14,07,27.30
2014,08,03,14,08,27.40
2014,08,03,14,09,27.40
2014,08,03,14,10,27.50
2014,08,03,14,11,27.60
2014,08,03,14,12,27.60
2014,08,03,14,13,27.70
2014,08,03,14,14,27.70
2014,08,03,14,15,27.70
2014,08,03,14,16,27.80
2014,08,03,14,17,27.80
2014,08,03,14,18,27.90
2014,08,03,14,19,28.00
2014,08,03,14,20,28.10
2014,08,03,14,21,28.20
2014,08,03,14,22,28.20
2014,08,03,14,23,28.20
2014,08,03,14,24,28.30
2014,08,03,14,25,28.50
2014,08,03,14,26,28.60
2014,08,03,14,27,28.70
2014,08,03,14,28,28.70
2014,08,03,14,29,28.80
2014,08,03,14,30,28.90
2014,08,03,14,31,28.90
2014,08,03,14,32,29.00
2014,08,03,14,33,29.00
2014,08,03,14,34,29.00
2014,08,03,14,35,29.00
2014,08,03,14,36,29.10
2014,08,03,14,37,29.20
2014,08,03,14,38,29.30
2014,08,03,14,39,29.30
2014,08,03,14,40,29.30
2014,08,03,14,41,29.30
2014,08,03,14,42,29.40
2014,08,03,14,43,29.30
2014,08,03,14,44,29.20
2014,08,03,14,45,29.10
2014,08,03,14,46,29.00
2014,08,03,14,47,29.00
2014,08,03,14,48,29.00
2014,08,03,14,49,29.00
2014,08,03,14,50,29.10
2014,08,03,14,51,29.30
2014,08,03,14,52,29.40
2014,08,03,14,53,29.60
2014,08,03,14,54,29.70
2014,08,03,14,55,29.90
2014,08,03,14,56,30.00
2014,08,03,14,57,30.20
2014,08,03,14,58,30.30
2014,08,03,14,59,30.20
2014,08,03,15,00,30.00
2014,08,03,15,01,29.80
2014,08,03,15,02,29.80
2014,08,03,15,03,29.80
2014,08,03,15,04,29.80
2014,08,03,15,05,29.80
2014,08,03,15,06,29.80
2014,08,03,15,07,29.90
2014,08,03,15,08,29.90
2014,08,03,15,09,30.00
2014,08,03,15,10,30.20
2014,08,03,15,11,30.30
2014,08,03,15,12,30.20
2014,08,03,15,13,30.10
2014,08,03,15,14,30.10
2014,08,03,15,15,30.00
2014,08,03,15,16,29.80
2014,08,03,15,17,29.60
2014,08,03,15,18,29.60
2014,08,03,15,19,29.60
2014,08,03,15,20,29.60
2014,08,03,15,21,29.60
2014,08,03,15,22,29.60
2014,08,03,15,23,29.60
2014,08,03,15,24,29.60
2014,08,03,15,25,29.60
2014,08,03,15,26,29.70
2014,08,03,15,27,29.60
2014,08,03,15,28,29.60
2014,08,03,15,29,29.60
2014,08,03,15,30,29.60
2014,08,03,15,31,29.60
2014,08,03,15,32,29.70
2014,08,03,15,33,29.70
2014,08,03,15,34,29.70
2014,08,03,15,35,29.60
2014,08,03,15,36,29.50
2014,08,03,15,37,29.40
2014,08,03,15,38,29.40
2014,08,03,15,39,29.40
2014,08,03,15,40,29.40
2014,08,03,15,41,29.40
2014,08,03,15,42,29.40
2014,08,03,15,43,29.40
2014,08,03,15,44,29.40
2014,08,03,15,45,29.30
2014,08,03,15,46,29.30
2014,08,03,15,47,29.20
2014,08,03,15,48,29.20
2014,08,03,15,49,29.10
2014,08,03,15,50,29.10
2014,08,03,15,51,29.10
2014,08,03,15,52,29.10
2014,08,03,15,53,29.10
2014,08,03,15,54,29.20
2014,08,03,15,55,29.40
2014,08,03,15,56,29.50
2014,08,03,15,57,29.60
2014,08,03,15,58,29.70
2014,08,03,15,59,29.70
2014,08,03,16,00,29.70
2014,08,03,16,01,29.70
2014,08,03,16,02,29.70
2014,08,03,16,03,29.70
2014,08,03,16,04,29.70
2014,08,03,16,05,29.70
2014,08,03,16,06,29.60
2014,08,03,16,07,29.60
2014,08,03,16,08,29.50
2014,08,03,16,09,29.40
2014,08,03,16,10,29.30
2014,08,03,16,11,29.30
2014,08,03,16,12,29.30
2014,08,03,16,13,29.30
2014,08,03,16,14,29.30
2014,08,03,16,15,29.30
2014,08,03,16,16,29.20
2014,08,03,16,17,29.20
2014,08,03,16,18,29.20
2014,08,03,16,19,29.10
2014,08,03,16,20,29.10
2014,08,03,16,21,29.10
2014,08,03,16,22,29.10
2014,08,03,16,23,29.20
2014,08,03,16,24,29.40
2014,08,03,16,25,29.50
2014,08,03,16,26,29.70
2014,08,03,16,27,29.80
2014,08,03,16,28,29.80
2014,08,03,16,29,29.90
2014,08,03,16,30,29.90
2014,08,03,16,31,29.80
2014,08,03,16,32,29.80
2014,08,03,16,33,29.80
2014,08,03,16,34,29.80
2014,08,03,16,35,29.80
2014,08,03,16,36,29.80
2014,08,03,16,37,29.80
2014,08,03,16,38,29.80
2014,08,03,16,39,29.80
2014,08,03,16,40,29.80
2014,08,03,16,41,29.90
2014,08,03,16,42,29.90
2014,08,03,16,43,30.00
2014,08,03,16,44,30.10
2014,08,03,16,45,30.20
2014,08,03,16,46,30.30
2014,08,03,16,47,30.40
2014,08,03,16,48,30.50
2014,08,03,16,49,30.50
2014,08,03,16,50,30.60
2014,08,03,16,51,30.70
2014,08,03,16,52,30.70
2014,08,03,16,53,30.80
2014,08,03,16,54,30.80
2014,08,03,16,55,30.90
2014,08,03,16,56,30.90
2014,08,03,16,57,30.90
2014,08,03,16,58,30.90
2014,08,03,16,59,30.80
2014,08,03,17,00,30.80
2014,08,03,17,01,30.80
2014,08,03,17,02,30.80
2014,08,03,17,03,30.80
2014,08,03,17,04,30.90
2014,08,03,17,05,30.90
2014,08,03,17,06,30.90
2014,08,03,17,07,31.00
2014,08,03,17,08,31.10
2014,08,03,17,09,31.10
2014,08,03,17,10,31.20
2014,08,03,17,11,31.20
2014,08,03,17,12,31.30
2014,08,03,17,13,31.30
2014,08,03,17,14,31.30
2014,08,03,17,15,31.30
2014,08,03,17,16,31.30
2014,08,03,17,17,31.30
2014,08,03,17,18,31.30
2014,08,03,17,19,31.30
2014,08,03,17,20,31.10
2014,08,03,17,21,31.10
2014,08,03,17,22,31.10